Location: Santiago
(33.4378°S, 70.6505°W)
Time: 08:24:46
(UTC+00:00)

ISS - Pass Details

Date: 09 February 2026
Orbit: 413 x 428 km, 51.6° (Epoch: 13 February)

Event Time Altitude Azimuth Distance (km) Brightness Sun altitude
Rises 00:36:23 0° 288° (WNW) 2,392 0.8 -11.5°
Reaches altitude 10° 00:38:44 10° 274° (W) 1,534 0.1 -12.0°
Maximum altitude 00:41:39 25° 216° (SW) 915 -1.3 -12.5°
Drops below altitude 10° 00:44:37 10° 158° (SSE) 1,550 -0.8 -13.0°
Sets 00:47:00 0° 144° (SE) 2,424 0.0 -13.5°
